Weather History for Washington, NC

Change the Weather History Date:

Tuesday, December 4, 2012

  Actual Average (KEWN) Record (KEWN)
Temperature  
Mean Temperature 60 °F 50 °F  
Max Temperature 74 °F 61 °F 80 °F (1978)
Min Temperature 46 °F 39 °F 22 °F (1963)
Degree Days  
Heating Degree Days 5 15  
Month to date heating degree days 60  
Since 1 July heating degree days 487  
Cooling Degree Days 0 0  
Month to date cooling degree days 0  
Year to date cooling degree days 1900  
Growing Degree Days 10 (Base 50)    
Moisture  
Dew Point 51 °F    
Average Humidity 72    
Maximum Humidity 81    
Minimum Humidity 39    
Precipitation  
Precipitation 0.00 in 0.12 in 1.32 in (1951)
Month to date precipitation 0.46  
Year to date precipitation 49.81  
Snow  
Snow 0.00 in - - ()
Month to date snowfall  
Since 1 July snowfall  
Snow Depth -    
Sea Level Pressure  
Sea Level Pressure 30.27 in    
Wind  
Wind Speed 2 mph (SSW)    
Max Wind Speed 12 mph    
Max Gust Speed 16 mph    
Visibility 8 miles    
Events      
T = Trace of Precipitation, MM = Missing Value Source: NWS Daily Summary

Daily Weather History Graph

Daily Weather History Graph

Search for Another Location

Airport:

Trip Planner

Search our weather history database for the weather conditions in past years. The results will help you decide how hot, cold, wet, or windy it might be!

Date:

Astronomy

Dec. 04, 2012 Rise Set
Actual Time 7:02 AM EST 4:54 PM EST
Civil Twilight 6:34 AM EST 5:22 PM EST
Nautical Twilight 6:02 AM EST 5:54 PM EST
Astronomical Twilight 5:31 AM EST 6:25 PM EST
Moon 10:32 PM EST (12/4) 11:02 AM EST (12/4)
Length of Visible Light 10h 48m
Length of Day
9h 52m
Waning Gibbous, 69% of the Moon is Illuminated
Dec 4
Waning Gibbous
Dec 6
Last Quarter
Dec 13
New
Dec 20
First Quarter
Dec 28
Full

Hourly Weather History & Observations

Time (EST) Temp. Dew Point Humidity Pressure Visibility Wind Dir Wind Speed Gust Speed Precip Events Conditions
12:15 AM 53.4 °F 47.5 °F 80% 30.29 in 10.0 mi Calm Calm - N/A   Clear
12:35 AM 52.7 °F 46.9 °F 81% 30.28 in 10.0 mi Calm Calm - N/A   Clear
12:55 AM 52.7 °F 46.9 °F 81% 30.28 in 10.0 mi Calm Calm - N/A   Clear
1:15 AM 52.7 °F 46.9 °F 81% 30.28 in 7.0 mi Calm Calm - N/A   Clear
1:35 AM 53.6 °F 47.8 °F 81% 30.28 in 7.0 mi Calm Calm - N/A   Clear
1:55 AM 53.6 °F 47.8 °F 81% 30.29 in 7.0 mi Calm Calm - N/A   Clear
2:15 AM 53.2 °F 47.5 °F 81% 30.28 in 5.0 mi Calm Calm - N/A   Haze
2:35 AM 52.7 °F 46.9 °F 81% 30.29 in 2.5 mi Calm Calm - N/A   Haze
2:55 AM 52.7 °F 46.9 °F 81% 30.29 in 5.0 mi Calm Calm - N/A   Haze
3:15 AM 52.7 °F 46.9 °F 81% 30.29 in 3.0 mi Calm Calm - N/A   Haze
3:55 AM 52.7 °F 46.9 °F 81% 30.28 in 0.2 mi Calm Calm - N/A   Haze
4:15 AM 52.7 °F 46.9 °F 81% 30.28 in 0.2 mi Calm Calm - N/A   Haze
4:35 AM 50.2 °F 44.6 °F 81% 30.28 in 0.5 mi Calm Calm - N/A   Haze
4:55 AM 52.7 °F 46.9 °F 81% 30.29 in 0.5 mi Calm Calm - N/A   Haze
5:15 AM 52.0 °F 46.2 °F 81% 30.29 in 0.2 mi Calm Calm - N/A   Haze
5:35 AM 52.7 °F 46.9 °F 81% 30.29 in 0.2 mi Calm Calm - N/A   Haze
5:55 AM 48.4 °F 42.8 °F 81% 30.29 in 0.2 mi Calm Calm - N/A   Haze
6:15 AM 50.4 °F 44.8 °F 81% 30.30 in 0.2 mi Calm Calm - N/A   Haze
6:35 AM 50.2 °F 44.6 °F 81% 30.31 in 0.2 mi Calm Calm - N/A   Haze
6:55 AM 50.2 °F 44.6 °F 81% 30.31 in 0.2 mi Calm Calm - N/A   Haze
7:15 AM 46.6 °F 41.0 °F 81% 30.32 in 0.2 mi Calm Calm - N/A   Haze
7:35 AM 47.7 °F 41.9 °F 80% 30.32 in 0.2 mi Calm Calm - N/A   Haze
7:55 AM 50.0 °F 44.2 °F 81% 30.32 in 0.2 mi Calm Calm - N/A   Haze
8:15 AM 52.7 °F 46.9 °F 81% 30.33 in 1.8 mi Calm Calm - N/A   Haze
8:35 AM 55.4 °F 49.3 °F 80% 30.33 in 4.0 mi Calm Calm - N/A   Haze
8:55 AM 58.1 °F 52.0 °F 80% 30.34 in 7.0 mi Calm Calm - N/A   Clear
9:15 AM 58.1 °F 52.0 °F 80% 30.34 in 10.0 mi SW 4.6 mph - N/A   Scattered Clouds
9:35 AM 58.1 °F 52.0 °F 80% 30.34 in 10.0 mi Calm Calm - N/A   Scattered Clouds
9:55 AM 59.9 °F 54.0 °F 81% 30.34 in 10.0 mi Calm Calm - N/A   Scattered Clouds
10:15 AM 61.2 °F 54.9 °F 80% 30.34 in 10.0 mi SW 3.5 mph - N/A   Scattered Clouds
10:35 AM 63.9 °F 56.3 °F 76% 30.34 in 10.0 mi SW 3.5 mph - N/A   Clear
10:55 AM 65.7 °F 56.7 °F 73% 30.33 in 10.0 mi SW 4.6 mph - N/A   Clear
11:15 AM 69.8 °F 58.1 °F 66% 30.32 in 10.0 mi Calm Calm - N/A   Scattered Clouds
11:35 AM 73.0 °F 58.8 °F 61% 30.31 in 10.0 mi South 4.6 mph - N/A   Scattered Clouds
11:55 AM 73.0 °F 56.5 °F 56% 30.29 in 10.0 mi SSW 5.8 mph - N/A   Scattered Clouds
12:15 PM 73.0 °F 54.1 °F 51% 30.29 in 10.0 mi WSW 5.8 mph - N/A   Scattered Clouds
12:35 PM 73.2 °F 53.1 °F 49% 30.27 in 10.0 mi SSW 9.2 mph - N/A   Clear
12:55 PM 73.9 °F 52.2 °F 46% 30.27 in 10.0 mi SW 6.9 mph - N/A   Clear
1:15 PM 73.2 °F 51.3 °F 46% 30.26 in 10.0 mi SW 9.2 mph - N/A   Clear
1:35 PM 74.5 °F 51.4 °F 44% 30.24 in 10.0 mi SW 10.4 mph - N/A   Clear
1:55 PM 73.0 °F 50.9 °F 46% 30.24 in 10.0 mi SSW 9.2 mph - N/A   Clear
2:15 PM 73.0 °F 48.2 °F 41% 30.23 in 10.0 mi SW 10.4 mph 16.1 mph N/A   Scattered Clouds
2:35 PM 73.0 °F 49.1 °F 43% 30.23 in 10.0 mi WSW 6.9 mph - N/A   Mostly Cloudy
2:55 PM 73.6 °F 50.7 °F 45% 30.23 in 10.0 mi SW 4.6 mph - N/A   Overcast
3:15 PM 73.4 °F 47.3 °F 39% 30.22 in 10.0 mi WSW 9.2 mph - N/A   Scattered Clouds
3:35 PM 73.4 °F 47.8 °F 40% 30.22 in 10.0 mi SSW 11.5 mph - N/A   Scattered Clouds
3:55 PM 73.0 °F 51.6 °F 47% 30.22 in 10.0 mi SSW 9.2 mph - N/A   Scattered Clouds
4:15 PM 73.0 °F 52.7 °F 49% 30.22 in 10.0 mi SW 9.2 mph - N/A   Clear
4:35 PM 73.0 °F 54.0 °F 51% 30.22 in 10.0 mi SW 6.9 mph - N/A   Clear
4:55 PM 68.4 °F 53.6 °F 59% 30.22 in 10.0 mi South 3.5 mph - N/A   Clear
5:15 PM 66.9 °F 54.7 °F 65% 30.23 in 10.0 mi Calm Calm - N/A   Clear
5:55 PM 65.5 °F 55.4 °F 70% 30.23 in 10.0 mi South 3.5 mph - N/A   Clear
6:15 PM 65.1 °F 55.8 °F 72% 30.23 in 10.0 mi South 3.5 mph - N/A   Clear
6:35 PM 64.2 °F 55.4 °F 73% 30.23 in 10.0 mi Calm Calm - N/A   Clear
6:55 PM 62.6 °F 55.6 °F 78% 30.23 in 10.0 mi Calm Calm - N/A   Clear
7:15 PM 62.2 °F 55.6 °F 79% 30.24 in 10.0 mi South 3.5 mph - N/A   Clear
7:35 PM 63.0 °F 56.1 °F 78% 30.24 in 10.0 mi SSW 4.6 mph - N/A   Clear
7:55 PM 63.0 °F 56.3 °F 79% 30.24 in 10.0 mi South 5.8 mph - N/A   Clear
8:15 PM 63.0 °F 56.7 °F 80% 30.24 in 10.0 mi SSW 5.8 mph - N/A   Clear
8:35 PM 63.0 °F 56.8 °F 80% 30.24 in 10.0 mi SSW 5.8 mph - N/A   Clear
8:55 PM 63.0 °F 56.8 °F 80% 30.23 in 10.0 mi SSW 4.6 mph - N/A   Clear
9:15 PM 61.9 °F 55.8 °F 80% 30.23 in 10.0 mi SSW 4.6 mph - N/A   Clear
9:35 PM 61.0 °F 54.9 °F 80% 30.22 in 10.0 mi SSW 5.8 mph - N/A   Clear
9:55 PM 60.8 °F 54.5 °F 80% 30.23 in 10.0 mi SSW 6.9 mph - N/A   Clear
10:15 PM 60.8 °F 54.5 °F 80% 30.23 in 10.0 mi SSW 4.6 mph - N/A   Clear
10:35 PM 60.4 °F 54.5 °F 81% 30.22 in 10.0 mi SSW 3.5 mph - N/A   Clear
10:55 PM 60.4 °F 54.5 °F 81% 30.22 in 10.0 mi Calm Calm - N/A   Clear
11:15 PM 60.4 °F 54.5 °F 81% 30.21 in 10.0 mi SSW 3.5 mph - N/A   Clear
11:35 PM 60.4 °F 54.5 °F 81% 30.21 in 10.0 mi South 3.5 mph - N/A   Clear
11:55 PM 60.4 °F 54.5 °F 81% 30.21 in 10.0 mi SSW 4.6 mph - N/A   Clear